Location: Milton Keynes
(52.0316°N, 0.7531°W)
Time: 08:22:55
(UTC+00:00)

BlueWalker 3 - Pass Details

Date: 22 December 2025
Orbit: 451 x 463 km, 53.2° (Epoch: 18 January)

Event Time Altitude Azimuth Distance (km) Brightness Sun altitude
Rises 06:36:32 0° 219° (SW) 2,455 5.3 -13.2°
Reaches altitude 10° 06:38:48 10° 208° (SSW) 1,588 4.4 -12.8°
Maximum altitude 06:41:58 30° 146° (SE) 835 3.7 -12.4°
Drops below altitude 10° 06:45:11 10° 83° (E) 1,603 5.5 -11.9°
Sets 06:47:29 0° 73° (ENE) 2,483 6.3 -11.6°
